Regional Weather Roundup
Issued by NWS Cleveland, OH

Home | Current Version | Previous Version | Text Only | Print | Product List | Glossary Off
Versions: 1 2 3 4 5 6 7 8 9 10 11 12 13 14 15 16 17 18 19 20 21 22 23 24 25 26 27 28 29 30 31 32 33 34 35 36 37 38 39 40 41 42 43 44 45 46 47 48 49 50

000
ASUS41 KCLE 270110
RWRCLE
OHIO REGIONAL WEATHER ROUNDUP
NATIONAL WEATHER SERVICE WILMINGTON, OH
900 PM EDT SUN APR 26 2015

NOTE: "FAIR" INDICATES FEW OR NO CLOUDS BELOW 12,000 FEET WITH NO
SIGNIFICANT WEATHER AND/OR OBSTRUCTIONS TO VISIBILITY.

OHZ001>008-015>018-024>027-034-035-043-044-270200-
   NORTHWEST OHIO

CITY           SKY/WX    TMP DP  RH WIND       PRES   REMARKS
DEFIANCE       CLOUDY    54  30  40 CALM      29.90S
FINDLAY        MOCLDY    51  31  46 E7        29.88R
TOLEDO EXPRESS PTCLDY    49  29  46 E6        29.89S
TOLEDO EXEC    PTCLDY    50  32  50 E5        29.90S
LIMA           CLOUDY    51  34  52 NE3       29.88R
$$

OHZ009>014-019>023-028>033-038-089-270200-
   NORTHEAST OHIO

CITY           SKY/WX    TMP DP  RH WIND       PRES   REMARKS
CLE-HOPKINS    PTCLDY    45  31  58 N12       29.92R
CLE-LAKEFRONT  CLEAR     45  35  68 N8        29.89R
CUY CO. ARPT   NOT AVBL
LORAIN-ELYRIA  CLEAR     45  32  60 NE9       29.90R
ASHTABULA      CLOUDY    45  31  58 NW6       29.87R
AKRON-CANTON   PTCLDY    46  29  51 N8        29.86R
WOOSTER        CLEAR     46  30  53 N10       29.88R
MANSFIELD      CLEAR     46  28  49 N7        29.88R
YOUNGSTOWN     MOCLDY    47  31  53 N15G22    29.85R
$$

OHZ042-051>053-060>062-070>072-077>081-270200-
  SOUTHWEST OHIO

CITY           SKY/WX    TMP DP  RH WIND       PRES   REMARKS
CINC-COVINGTON PTCLDY    51  35  54 N7        29.89R
CINC-LUNKEN    PTCLDY    51  35  54 N6        29.89R
HAMILTON       PTCLDY    52  34  50 N5        29.90R
DAYTON         PTCLDY    50  32  50 NE5       29.89S
WRIGHT-PAT AFB PTCLDY    49  33  52 NE5       29.89R
DAYTON GENERAL CLEAR     50  32  50 N8        29.88R
WILMINGTON     CLEAR     48  33  56 N9        29.88R
$$

OHZ036-037-039>041-045>050-054>059-063>069-073>076-082>088-270200-
  CENTRAL AND SOUTHEAST OHIO

CITY           SKY/WX    TMP DP  RH WIND       PRES   REMARKS
COLUMBUS       PTCLDY    49  30  48 N8        29.87R
OSU AIRPORT    CLEAR     47  30  51 N8        29.88R
BOLTON FIELD   CLEAR     49  31  51 N8        29.88R
RICKENBACK AFB CLEAR     50  30  45 N7        29.87R
NEWARK         CLEAR     51  29  42 N8        29.86R
MARION         CLEAR     45  30  55 NE8       29.89R
LANCASTER      CLEAR     49  33  54 N7        29.87R
ZANESVILLE     CLEAR     49  27  42 N6        29.85R
NEW PHILLY     CLEAR     51  29  42 N10       29.85R
$$



USA.gov is the U.S. government's official web portal to all federal, state and local government web resources and services.